Location: Buckhorn Peak
(37.6641°N, 120.1241°W)
Time: 18:31:06
(UTC+00:00)

A-11 Canister half - All Passes

Search period start: 07 November 2024 00:00
Search period end: 17 November 2024 00:00
Orbit: 1525 x 1683 km, 47.3° (Epoch: 06 November)

Date Brightness Start Highest point End Pass type
(mag) Time Alt. Az. Time Alt. Az. Time Alt. Az.
07 Nov - 05:28:44 10° SSW 05:37:33 37° SE 05:46:07 10° ENE night (unlit)
07 Nov - 07:32:11 10° WSW 07:42:04 81° NNW 07:51:39 10° ENE night (unlit)
07 Nov - 09:38:50 10° W 09:48:07 48° N 09:57:09 10° ENE visible
07 Nov - 11:45:17 10° WNW 11:54:37 57° NNE 12:03:45 10° E visible
07 Nov - 13:50:38 10° WNW 13:59:53 67° SW 14:09:02 10° SE visible
07 Nov - 15:58:01 10° W 16:03:30 17° SW 16:09:01 10° SSW daylight
08 Nov - 05:07:08 10° SSW 05:15:48 35° SE 05:24:15 10° ENE visible
08 Nov - 07:10:21 10° WSW 07:20:16 84° NNW 07:29:52 10° ENE night (unlit)
08 Nov - 09:16:56 10° W 09:26:16 49° N 09:35:20 10° ENE visible
08 Nov - 11:23:28 10° WNW 11:32:48 56° NNE 11:41:55 10° E visible
08 Nov - 13:28:49 10° WNW 13:38:08 70° SW 13:47:19 10° SE visible
08 Nov - 15:35:56 10° W 15:41:49 19° SW 15:47:44 10° SSW daylight
09 Nov - 04:45:32 10° S 04:54:04 33° SE 05:02:22 10° ENE visible
09 Nov - 06:48:31 10° WSW 06:58:28 86° NNW 07:08:05 10° ENE night (unlit)
09 Nov - 08:55:02 10° W 09:04:25 50° N 09:13:30 10° ENE visible
09 Nov - 11:01:37 10° WNW 11:10:58 55° NNE 11:20:04 10° E visible
09 Nov - 13:07:00 10° WNW 13:16:23 73° SW 13:25:36 10° SE visible
09 Nov - 15:13:53 10° W 15:20:08 20° SW 15:26:23 10° SSW daylight
10 Nov - 04:23:57 10° S 04:32:19 31° SE 04:40:29 10° ENE visible
10 Nov - 06:26:41 10° SW 06:36:39 89° NNW 06:46:18 10° ENE night (unlit)
10 Nov - 08:33:07 10° W 08:42:33 50° N 08:51:41 10° ENE visible
10 Nov - 10:39:47 10° WNW 10:49:07 54° NNE 10:58:13 10° E visible
10 Nov - 12:45:12 10° WNW 12:54:37 76° SW 13:03:52 10° SE visible
10 Nov - 14:51:52 10° W 14:58:26 22° SW 15:05:00 10° S daylight
11 Nov - 04:02:23 10° S 04:10:35 30° SE 04:18:35 10° ENE visible
11 Nov - 06:04:52 10° SW 06:14:51 88° SE 06:24:32 10° ENE visible
11 Nov - 08:11:13 10° W 08:20:41 51° NNW 08:29:53 10° ENE visible
11 Nov - 10:17:56 10° WNW 10:27:17 53° NNE 10:36:22 10° E visible
11 Nov - 12:23:24 10° WNW 12:32:51 80° SW 12:42:08 10° SE visible
11 Nov - 14:29:52 10° WNW 14:36:44 24° SW 14:43:35 10° S daylight
12 Nov - 03:40:51 10° S 03:48:51 28° SE 03:56:39 10° ENE visible
12 Nov - 05:43:03 10° SW 05:53:04 85° SE 06:02:45 10° ENE visible
12 Nov - 07:49:18 10° W 07:58:50 52° NNW 08:08:04 10° ENE night (unlit)
12 Nov - 09:56:05 10° WNW 10:05:26 52° NNE 10:14:31 10° E visible
12 Nov - 12:01:35 10° WNW 12:11:05 83° SW 12:20:23 10° SE visible
12 Nov - 14:07:54 10° WNW 14:15:02 25° SW 14:22:08 10° S visible
13 Nov - 03:19:21 10° S 03:27:07 26° SE 03:34:44 10° ENE visible
13 Nov - 05:21:15 10° SW 05:31:16 82° SE 05:40:58 10° ENE visible
13 Nov - 07:27:23 10° W 07:36:58 53° NNW 07:46:16 10° ENE night (unlit)
13 Nov - 09:34:13 10° WNW 09:43:35 51° NNE 09:52:40 10° E visible
13 Nov - 11:39:46 10° WNW 11:49:19 86° SSW 11:58:38 10° SE visible
13 Nov - 13:45:57 10° WNW 13:53:20 27° SW 14:00:41 10° S visible
14 Nov - 02:57:52 10° S 03:05:23 25° SE 03:12:46 10° ENE visible
14 Nov - 04:59:27 10° SW 05:09:28 79° SE 05:19:10 10° ENE visible
14 Nov - 07:05:29 10° W 07:15:07 54° NNW 07:24:27 10° ENE night (unlit)
14 Nov - 09:12:21 10° WNW 09:21:44 51° N 09:30:49 10° E visible
14 Nov - 11:17:57 10° WNW 11:27:33 89° SSW 11:36:52 10° SE visible
14 Nov - 13:24:01 10° WNW 13:31:38 29° SW 13:39:11 10° S visible
15 Nov - 02:36:23 10° S 02:43:39 23° SE 02:50:47 10° E visible
15 Nov - 04:37:39 10° SW 04:47:40 76° SE 04:57:23 10° ENE visible
15 Nov - 06:43:35 10° W 06:53:15 55° NNW 07:02:39 10° ENE visible
15 Nov - 08:50:29 10° WNW 08:59:52 50° N 09:08:58 10° E visible
15 Nov - 10:56:09 10° WNW 11:05:46 88° NE 11:15:06 10° ESE visible
15 Nov - 13:02:07 10° WNW 13:09:56 31° SW 13:17:41 10° S visible
16 Nov - 02:14:58 10° S 02:21:55 21° SE 02:28:46 10° E visible
16 Nov - 04:15:53 10° SW 04:25:53 73° SE 04:35:36 10° ENE visible
16 Nov - 06:21:40 10° W 06:31:24 56° NNW 06:40:51 10° ENE visible
16 Nov - 08:28:36 10° WNW 08:38:01 49° N 08:47:07 10° E visible
16 Nov - 10:34:20 10° WNW 10:43:59 85° NNE 10:53:20 10° ESE visible
16 Nov - 12:40:11 10° WNW 12:48:13 33° SW 12:56:09 10° S visible
